TimeEST,TemperatureF,Dew PointF,Humidity,Sea Level PressureIn,VisibilityMPH,Wind Direction,Wind SpeedMPH,Gust SpeedMPH,PrecipitationIn,Events,Conditions,WindDirDegrees,DateUTC
12:11 AM,46.4,44.6,93,29.64,10.0,South,9.2,-,N/A,Rain,Light Rain,190,2012-11-24 05:11:00
12:23 AM,46.4,46.4,100,29.62,10.0,South,8.1,-,N/A,,Mostly Cloudy,180,2012-11-24 05:23:00
12:55 AM,46.4,45.9,98,29.61,9.0,SSW,6.9,-,0.00,,Overcast,200,2012-11-24 05:55:00
1:08 AM,46.4,46.4,100,29.61,10.0,SSW,5.8,-,N/A,,Overcast,200,2012-11-24 06:08:00
1:53 AM,46.4,46.4,100,29.61,7.0,SSW,4.6,-,N/A,,Overcast,210,2012-11-24 06:53:00
1:55 AM,46.4,45.9,98,29.61,7.0,SSW,4.6,-,N/A,,Overcast,210,2012-11-24 06:55:00
2:33 AM,46.4,44.6,93,29.60,6.0,WSW,3.5,-,N/A,,Overcast,240,2012-11-24 07:33:00
2:55 AM,45.0,43.9,96,29.61,8.0,NW,16.1,21.9,N/A,,Overcast,320,2012-11-24 07:55:00
2:58 AM,44.6,42.8,93,29.61,10.0,NNW,15.0,24.2,N/A,,Overcast,330,2012-11-24 07:58:00
3:01 AM,44.6,41.0,87,29.60,10.0,NW,15.0,24.2,N/A,,Overcast,320,2012-11-24 08:01:00
3:07 AM,44.6,39.2,81,29.61,10.0,NW,12.7,-,N/A,,Overcast,320,2012-11-24 08:07:00
3:55 AM,43.5,32.2,64,29.61,10.0,NW,11.5,-,N/A,,Overcast,320,2012-11-24 08:55:00
4:55 AM,43.0,31.6,64,29.63,10.0,NNW,9.2,-,N/A,,Overcast,330,2012-11-24 09:55:00
5:55 AM,41.5,25.7,53,29.64,10.0,WNW,15.0,-,N/A,,Overcast,300,2012-11-24 10:55:00
6:55 AM,40.6,22.6,49,29.65,10.0,NW,8.1,-,N/A,,Overcast,310,2012-11-24 11:55:00
7:55 AM,39.9,20.8,47,29.67,10.0,NW,15.0,-,N/A,,Overcast,310,2012-11-24 12:55:00
8:55 AM,39.7,20.5,46,29.68,10.0,WNW,17.3,26.5,0.01,,Mostly Cloudy,290,2012-11-24 13:55:00
9:55 AM,42.1,20.3,42,29.66,10.0,WNW,24.2,32.2,N/A,,Mostly Cloudy,300,2012-11-24 14:55:00
10:55 AM,42.6,19.2,39,29.65,10.0,WNW,20.7,27.6,N/A,,Overcast,290,2012-11-24 15:55:00
11:55 AM,42.3,18.7,39,29.62,10.0,West,24.2,31.1,N/A,,Mostly Cloudy,280,2012-11-24 16:55:00
12:55 PM,41.5,18.3,39,29.61,10.0,West,25.3,35.7,N/A,,Mostly Cloudy,280,2012-11-24 17:55:00
1:55 PM,40.1,18.5,42,29.62,10.0,West,20.7,32.2,N/A,,Partly Cloudy,280,2012-11-24 18:55:00
2:55 PM,40.1,19.0,43,29.62,10.0,West,17.3,27.6,N/A,,Partly Cloudy,280,2012-11-24 19:55:00
3:44 PM,39.2,19.4,45,29.64,10.0,NW,18.4,27.6,N/A,,Overcast,320,2012-11-24 20:44:00
3:52 PM,37.4,19.4,48,29.64,10.0,NW,18.4,26.5,N/A,,Overcast,310,2012-11-24 20:52:00
3:55 PM,37.9,19.0,47,29.64,10.0,WNW,17.3,26.5,0.00,,Overcast,300,2012-11-24 20:55:00
4:55 PM,36.3,19.4,50,29.65,10.0,West,15.0,31.1,N/A,,Mostly Cloudy,280,2012-11-24 21:55:00
5:55 PM,34.5,16.7,48,29.68,10.0,WNW,12.7,24.2,N/A,,Clear,290,2012-11-24 22:55:00
6:55 PM,34.9,18.3,51,29.68,10.0,West,15.0,-,N/A,,Mostly Cloudy,280,2012-11-24 23:55:00
6:58 PM,35.6,17.6,48,29.68,10.0,WNW,15.0,24.2,N/A,,Mostly Cloudy,290,2012-11-24 23:58:00
7:20 PM,33.8,19.4,56,29.69,10.0,NW,12.7,19.6,N/A,,Mostly Cloudy,310,2012-11-25 00:20:00
7:21 PM,33.8,19.4,56,29.69,10.0,WNW,13.8,19.6,N/A,,Mostly Cloudy,300,2012-11-25 00:21:00
7:34 PM,33.8,19.4,56,29.69,10.0,WNW,13.8,20.7,N/A,,Mostly Cloudy,300,2012-11-25 00:34:00
7:55 PM,33.4,18.1,54,29.70,10.0,WNW,12.7,-,0.00,,Mostly Cloudy,300,2012-11-25 00:55:00
8:55 PM,32.0,14.9,49,29.71,10.0,WNW,10.4,-,N/A,,Clear,290,2012-11-25 01:55:00
9:55 PM,32.2,16.5,53,29.71,10.0,WNW,15.0,-,N/A,,Clear,300,2012-11-25 02:55:00
10:55 PM,32.5,17.2,53,29.71,10.0,WNW,17.3,21.9,N/A,,Mostly Cloudy,300,2012-11-25 03:55:00
11:55 PM,32.5,16.9,53,29.72,10.0,WNW,17.3,24.2,N/A,,Mostly Cloudy,300,2012-11-25 04:55:00